When you browse on this site, cookies collect data to enhance your experience and personalize the content and advertising you see.
Visit our Privacy Policy to learn more. By continuing to use the site, you agree to this use of cookies and data.
  • In Latvia
  • List of Countries
  • For 7 days
  • Water Temperature
  • Weather Map
  • Weather Widgets
  • user-avatar
    Login

    Hourly Weather Bolshoy Suhodol

    Today, 25 August, Sunday

    Time Temperature Precipitation Wind Pressure Humidity
    00:00 +16°C° 0 mm 3 mps 745 mmHg 75%
    01:00 +14°C° 0 mm 3 mps 745 mmHg 79%
    02:00 +14°C° 0 mm 3 mps 745 mmHg 84%
    03:00 +14°C° 0 mm 3 mps 745 mmHg 88%
    04:00 +13°C° 0 mm 3 mps 745 mmHg 90%
    05:00 +13°C° 0 mm 3 mps 745 mmHg 93%
    06:00 +13°C° 0 mm 3 mps 745 mmHg 95%
    07:00 +14°C° 0 mm 3 mps 745 mmHg 88%
    08:00 +16°C° 0 mm 3 mps 746 mmHg 81%
    09:00 +18°C° 0 mm 3 mps 746 mmHg 74%
    10:00 +19°C° 0 mm 4 mps 746 mmHg 69%
    11:00 +19°C° 0 mm 4 mps 746 mmHg 64%
    12:00 +20°C° 0 mm 4 mps 746 mmHg 59%
    13:00 +21°C° 0 mm 4 mps 746 mmHg 58%
    14:00 +21°C° 0 mm 4 mps 747 mmHg 58%
    15:00 +21°C° 0 mm 4 mps 747 mmHg 57%
    16:00 +21°C° 0 mm 4 mps 747 mmHg 61%
    17:00 +20°C° 0 mm 3 mps 747 mmHg 65%
    18:00 +19°C° 0 mm 3 mps 746 mmHg 69%
    19:00 +18°C° 0 mm 3 mps 747 mmHg 73%
    20:00 +17°C° 0 mm 2 mps 747 mmHg 77%
    21:00 +15°C° 0 mm 2 mps 748 mmHg 81%
    22:00 +15°C° 0 mm 2 mps 748 mmHg 83%
    23:00 +14°C° 0 mm 2 mps 748 mmHg 86%

    Tomorrow, 26 August, Monday

    Time Temperature Precipitation Wind Pressure Humidity
    00:00 +14°C° 0 mm 2 mps 748 mmHg 89%
    01:00 +13°C° 0 mm 2 mps 748 mmHg 90%
    02:00 +12°C° 0 mm 2 mps 749 mmHg 90%
    03:00 +12°C° 0 mm 1 mps 749 mmHg 90%
    04:00 +12°C° 0 mm 1 mps 749 mmHg 90%
    05:00 +12°C° 0 mm 1 mps 749 mmHg 90%
    06:00 +10°C° 0 mm 0 mps 748 mmHg 89%
    07:00 +12°C° 0 mm 0 mps 749 mmHg 83%
    08:00 +15°C° 0 mm 1 mps 749 mmHg 76%
    09:00 +16°C° 0 mm 1 mps 749 mmHg 69%
    10:00 +19°C° 0 mm 1 mps 749 mmHg 64%
    11:00 +20°C° 0 mm 1 mps 749 mmHg 59%
    12:00 +19°C° 0 mm 0 mps 749 mmHg 54%
    13:00 +22°C° 0 mm 1 mps 748 mmHg 52%
    14:00 +22°C° 0 mm 1 mps 748 mmHg 50%
    15:00 +23°C° 0 mm 1 mps 748 mmHg 47%
    16:00 +22°C° 0 mm 1 mps 747 mmHg 51%
    17:00 +22°C° 0 mm 1 mps 747 mmHg 54%
    18:00 +22°C° 0 mm 1 mps 746 mmHg 58%
    19:00 +20°C° 0 mm 1 mps 746 mmHg 62%
    20:00 +18°C° 0 mm 2 mps 746 mmHg 65%
    21:00 +16°C° 0 mm 2 mps 746 mmHg 69%
    22:00 +16°C° 0 mm 2 mps 746 mmHg 71%
    23:00 +15°C° 0 mm 2 mps 745 mmHg 73%

    Day after tomorrow, 27 August, Tuesday

    Time Temperature Precipitation Wind Pressure Humidity
    00:00 +15°C° 0 mm 2 mps 745 mmHg 75%
    01:00 +14°C° 0 mm 3 mps 745 mmHg 77%
    02:00 +13°C° 0 mm 3 mps 745 mmHg 78%
    03:00 +13°C° 0 mm 3 mps 744 mmHg 80%
    04:00 +13°C° 0 mm 3 mps 744 mmHg 81%
    05:00 +13°C° 0 mm 3 mps 743 mmHg 82%
    06:00 +13°C° 0 mm 3 mps 743 mmHg 83%
    07:00 +14°C° 0 mm 4 mps 743 mmHg 80%
    08:00 +15°C° 0 mm 4 mps 742 mmHg 78%
    09:00 +17°C° 0 mm 5 mps 742 mmHg 75%
    10:00 +19°C° 0.2 mm 5 mps 742 mmHg 72%
    11:00 +20°C° 0.2 mm 6 mps 741 mmHg 69%
    12:00 +21°C° 0.2 mm 6 mps 741 mmHg 66%
    13:00 +22°C° 0.4 mm 7 mps 741 mmHg 66%
    14:00 +22°C° 0.4 mm 7 mps 740 mmHg 65%
    15:00 +22°C° 0.4 mm 7 mps 740 mmHg 64%
    16:00 +21°C° 0.1 mm 6 mps 740 mmHg 67%
    17:00 +20°C° 0.1 mm 5 mps 740 mmHg 69%
    18:00 +19°C° 0.1 mm 5 mps 740 mmHg 72%
    19:00 +17°C° 0 mm 5 mps 740 mmHg 74%
    20:00 +17°C° 0 mm 4 mps 740 mmHg 75%
    21:00 +14°C° 0 mm 4 mps 740 mmHg 77%
    22:00 +13°C° 0 mm 4 mps 741 mmHg 78%
    23:00 +13°C° 0 mm 4 mps 741 mmHg 79%

    28 August, Wednesday

    Time Temperature Precipitation Wind Pressure Humidity
    00:00 +12°C° 0 mm 4 mps 741 mmHg 80%
    01:00 +11°C° 0 mm 4 mps 742 mmHg 81%
    02:00 +9°C° 0 mm 5 mps 742 mmHg 82%
    03:00 +9°C° 0 mm 5 mps 742 mmHg 83%
    04:00 +8°C° 0 mm 5 mps 742 mmHg 81%
    05:00 +7°C° 0 mm 5 mps 743 mmHg 79%
    06:00 +6°C° 0 mm 4 mps 743 mmHg 76%
    07:00 +7°C° 0 mm 5 mps 743 mmHg 72%
    08:00 +8°C° 0 mm 6 mps 744 mmHg 67%
    09:00 +8°C° 0 mm 6 mps 744 mmHg 63%
    10:00 +9°C° 0 mm 6 mps 744 mmHg 61%
    11:00 +11°C° 0 mm 6 mps 744 mmHg 59%
    12:00 +13°C° 0 mm 6 mps 744 mmHg 56%
    13:00 +13°C° 0 mm 6 mps 744 mmHg 54%
    14:00 +14°C° 0 mm 6 mps 744 mmHg 52%
    15:00 +14°C° 0 mm 7 mps 744 mmHg 50%
    16:00 +14°C° 0 mm 6 mps 744 mmHg 53%
    17:00 +13°C° 0 mm 6 mps 744 mmHg 56%
    18:00 +12°C° 0 mm 5 mps 744 mmHg 59%
    19:00 +11°C° 0 mm 4 mps 744 mmHg 63%
    20:00 +8°C° 0 mm 4 mps 745 mmHg 68%
    21:00 +8°C° 0 mm 3 mps 745 mmHg 72%
    22:00 +7°C° 0 mm 3 mps 745 mmHg 74%
    23:00 +7°C° 0 mm 3 mps 745 mmHg 76%

    29 August, Thursday

    Time Temperature Precipitation Wind Pressure Humidity
    00:00 +6°C° 0 mm 2 mps 746 mmHg 77%
    01:00 +6°C° 0 mm 2 mps 746 mmHg 79%
    02:00 +4°C° 0 mm 3 mps 746 mmHg 81%
    03:00 +4°C° 0 mm 3 mps 746 mmHg 83%
    04:00 +4°C° 0 mm 3 mps 746 mmHg 85%
    05:00 +4°C° 0 mm 3 mps 746 mmHg 87%
    06:00 +3°C° 0 mm 3 mps 746 mmHg 89%
    07:00 +5°C° 0 mm 4 mps 746 mmHg 82%
    08:00 +6°C° 0 mm 5 mps 747 mmHg 75%
    09:00 +8°C° 0 mm 5 mps 747 mmHg 68%
    10:00 +9°C° 0 mm 5 mps 747 mmHg 65%
    11:00 +10°C° 0 mm 5 mps 747 mmHg 62%
    12:00 +12°C° 0 mm 5 mps 746 mmHg 59%
    13:00 +13°C° 0 mm 5 mps 746 mmHg 58%
    14:00 +13°C° 0 mm 5 mps 746 mmHg 56%
    15:00 +14°C° 0 mm 5 mps 746 mmHg 54%
    16:00 +14°C° 0 mm 5 mps 746 mmHg 57%
    17:00 +13°C° 0 mm 4 mps 746 mmHg 60%
    18:00 +13°C° 0 mm 4 mps 746 mmHg 63%
    19:00 +11°C° 0 mm 3 mps 746 mmHg 67%
    20:00 +10°C° 0 mm 3 mps 746 mmHg 72%
    21:00 +8°C° 0 mm 3 mps 746 mmHg 76%
    22:00 +8°C° 0 mm 2 mps 746 mmHg 78%
    23:00 +7°C° 0 mm 2 mps 746 mmHg 79%

    30 August, Friday

    Time Temperature Precipitation Wind Pressure Humidity
    00:00 +7°C° 0 mm 2 mps 747 mmHg 81%
    01:00 +6°C° 0 mm 2 mps 747 mmHg 82%
    02:00 +6°C° 0 mm 2 mps 746 mmHg 83%
    03:00 +6°C° 0 mm 2 mps 746 mmHg 84%
    04:00 +5°C° 0 mm 2 mps 746 mmHg 85%
    05:00 +5°C° 0 mm 2 mps 746 mmHg 86%
    06:00 +5°C° 0 mm 2 mps 746 mmHg 87%
    07:00 +7°C° 0 mm 3 mps 746 mmHg 80%
    08:00 +9°C° 0 mm 3 mps 746 mmHg 73%
    09:00 +10°C° 0 mm 3 mps 746 mmHg 67%
    10:00 +12°C° 0 mm 3 mps 746 mmHg 60%
    11:00 +13°C° 0 mm 3 mps 746 mmHg 54%
    12:00 +16°C° 0 mm 3 mps 746 mmHg 48%
    13:00 +16°C° 0 mm 3 mps 746 mmHg 47%
    14:00 +17°C° 0 mm 4 mps 745 mmHg 47%
    15:00 +17°C° 0 mm 4 mps 744 mmHg 46%
    16:00 +17°C° 0 mm 4 mps 744 mmHg 52%
    17:00 +17°C° 0 mm 4 mps 744 mmHg 59%
    18:00 +16°C° 0 mm 3 mps 743 mmHg 65%
    19:00 +15°C° 0.1 mm 4 mps 743 mmHg 71%
    20:00 +14°C° 0.1 mm 4 mps 743 mmHg 77%
    21:00 +14°C° 0.1 mm 4 mps 743 mmHg 83%
    22:00 +13°C° 0.2 mm 3 mps 743 mmHg 87%
    23:00 +13°C° 0.2 mm 3 mps 743 mmHg 92%
    Show more